Wind_Speed
3 3 3 2 2 3 3 3 3 2 2 2 2 3 3 4 4 5 5 5 5 5 5 5 5 5 4 4 4 4 5 5 5 5 5 5 5 5 5 5 5 6 7
2 3 3 2 2 3 4 5 5 4 2 2 1 1 1 2 2 2 3 3 3 3 3 3 3 3 3 3 3 3 4 4 4 4 4 4 4 4 4 5 5 6 7
3 3 3 3 4 4 5 6 6 5 4 3 2 2 1 1 0 0 1 1 1 1 1 0 1 1 1 2 2 3 3 4 4 4 4 4 4 4 4 4 5 5 6
3 4 5 5 6 6 7 8 7 7 6 5 4 4 3 3 2 2 2 2 2 2 2 2 2 2 1 1 2 3 3 4 4 4 4 4 4 4 4 4 4 5 6
4 5 6 7 7 8 8 9 9 8 7 6 6 5 5 4 4 4 4 4 4 4 4 4 4 4 4 3 3 4 4 5 5 5 5 5 5 5 5 5 5 5 6
6 7 8 9 9 10 10 10 10 10 9 8 8 7 7 6 6 5 5 5 5 6 6 6 6 6 6 6 6 6 6 6 7 7 7 7 6 6 6 6 6 6 6
8 9 9 10 11 12 12 12 12 11 11 10 10 9 8 8 8 7 7 7 7 7 7 7 8 8 8 8 8 8 8 9 9 9 9 8 8 8 8 8 8 7 7
10 11 12 12 13 13 13 14 13 13 13 12 12 11 11 10 10 9 9 9 9 9 9 9 9 10 10 11 11 10 10 11 11 11 11 11 10 10 10 10 9 9 9
12 13 13 14 15 15 15 15 15 15 15 14 14 14 13 12 12 11 11 11 11 10 11 11 11 11 12 12 13 13 13 13 13 13 13 13 13 13 12 12 12 11 11
14 15 15 15 16 16 16 17 17 18 17 17 17 16 16 16 15 15 14 13 13 13 13 13 13 13 13 14 14 15 15 15 15 16 16 15 15 15 15 15 14 14 13
17 17 17 17 18 18 18 18 19 21 21 20 20 20 19 19 19 18 18 17 16 15 15 15 15 15 15 15 16 16 17 18 18 18 18 18 17 17 17 17 16 16 15
19 19 19 19 19 19 20 20 21 23 23 23 23 23 23 23 22 22 21 20 19 18 18 17 17 17 17 17 17 17 18 20 20 20 20 20 20 20 19 19 19 18 18
21 20 20 21 20 21 21 22 22 23 24 25 26 25 25 25 24 24 24 22 21 21 20 20 20 20 20 20 19 19 20 21 22 23 22 21 22 23 22 22 21 21 20
21 21 22 22 21 22 22 22 22 22 23 24 24 26 28 26 25 26 25 24 23 23 22 22 21 21 22 22 22 21 20 22 22 23 25 25 25 25 25 24 24 23 22
21 22 21 22 22 22 23 22 22 23 24 23 23 23 25 25 25 25 27 26 25 25 24 24 23 23 23 23 23 22 23 22 23 23 24 26 27 28 28 28 27 26 25
22 22 21 22 22 21 21 22 22 22 22 23 23 22 24 25 25 26 26 26 25 25 24 24 24 24 25 25 24 23 23 24 25 25 25 26 27 29 30 30 29 29 28
22 22 22 22 21 20 19 19 20 21 22 22 23 23 24 24 24 24 24 24 24 24 25 25 25 25 25 25 25 26 26 25 26 26 27 27 27 30 32 32 32 32 31
22 22 21 19 18 16 16 16 18 19 20 20 21 22 23 24 25 25 26 26 26 26 26 26 27 27 26 25 25 26 27 27 27 27 28 29 29 29 32 33 33 33 33
20 19 18 16 14 14 14 14 16 17 18 20 21 21 23 24 25 26 27 28 29 29 28 29 29 28 28 28 27 28 28 28 28 28 28 29 30 31 32 34 35 35 34
17 16 14 13 13 13 14 15 16 17 19 20 21 22 22 23 24 26 27 28 30 31 31 31 31 31 31 30 30 30 30 30 30 30 30 30 30 32 33 34 35 36 36
14 13 12 12 13 14 15 16 17 18 20 21 22 23 24 25 26 26 27 28 29 31 31 32 32 32 33 33 33 32 32 33 32 32 31 31 30 32 33 34 35 36 37
13 12 12 13 14 15 16 17 19 20 21 22 24 24 26 27 27 27 28 29 29 30 31 32 33 33 33 34 34 33 34 34 34 33 33 33 33 33 34 34 37 37 37
11 11 12 13 15 16 18 19 21 22 23 24 25 26 26 27 28 28 29 30 30 31 31 32 32 33 34 34 34 34 35 35 35 35 35 35 35 35 35 36 37 38 39
10 12 13 15 17 18 20 22 23 24 25 26 26 27 28 28 29 29 30 30 30 31 31 32 32 33 34 35 35 36 36 36 37 36 36 37 38 37 37 38 38 39 40
11 13 15 16 18 20 21 23 24 25 26 26 27 28 29 29 30 30 30 30 30 31 31 32 32 33 34 35 36 36 37 37 38 38 38 39 39 39 39 39 39 40 41
13 14 16 18 19 21 22 24 25 26 26 27 28 29 30 30 30 30 30 31 31 31 32 32 33 34 35 35 36 36 37 38 39 40 40 40 40 40 41 41 40 40 41
Wind_Direction
44 46 42 33 10 342 329 332 334 341 6 44 68 75 79 81 81 80 75 72 74 75 76 77 80 83 87 95 103 109 111 111 110 110 110 113 112 111 111 113 123 132 133
6 12 12 360 341 316 305 308 308 307 310 328 358 38 55 76 81 75 71 64 64 68 72 73 81 88 93 101 114 128 131 126 125 127 127 128 126 125 124 123 129 138 140
334 341 342 330 321 305 297 300 301 297 291 289 291 297 306 299 283 25 48 31 21 20 34 70 87 117 119 128 141 154 161 158 154 152 148 144 140 139 138 137 135 142 142
316 319 325 320 312 303 295 294 296 292 285 284 281 279 278 277 270 266 264 268 270 272 272 267 258 244 222 195 187 187 187 187 184 181 173 168 163 158 153 153 153 151 151
315 314 315 311 307 300 292 289 288 284 282 282 281 277 271 272 271 267 262 260 260 262 264 265 263 258 254 246 232 220 212 209 205 201 196 190 188 184 174 169 170 168 166
309 311 311 308 303 298 291 286 282 280 279 277 277 275 269 267 266 267 265 261 259 259 259 261 261 261 260 257 252 242 231 223 218 214 211 207 203 200 194 186 182 180 179
304 306 304 304 300 293 287 282 278 276 275 275 274 271 267 264 262 263 264 265 264 262 260 260 262 260 261 259 258 253 241 233 226 222 219 217 213 210 206 200 193 189 187
299 304 301 297 294 289 282 276 273 273 274 273 271 269 265 264 263 263 265 266 267 265 263 264 264 263 261 261 259 256 247 240 233 228 225 222 221 218 214 210 204 198 194
295 297 296 294 291 285 280 273 267 267 269 269 269 268 266 265 266 266 266 267 267 266 266 267 267 268 264 262 260 255 250 246 239 233 229 227 225 223 219 215 212 207 202
290 292 292 292 289 280 276 275 268 263 264 264 266 265 265 265 264 265 267 267 266 267 268 269 267 265 265 264 261 256 250 247 243 236 232 230 229 226 223 219 216 213 209
288 289 289 288 285 278 272 270 266 260 259 260 262 263 263 264 265 266 266 265 266 266 267 267 265 262 262 264 262 258 253 249 245 239 235 231 230 229 226 223 220 217 214
292 289 286 287 283 277 274 272 266 260 258 260 263 264 263 264 265 266 265 264 264 265 266 265 263 262 261 262 260 258 255 250 246 242 238 234 232 230 228 226 223 221 218
294 288 285 285 279 274 272 271 269 266 263 263 264 264 265 268 268 268 267 266 265 267 269 269 265 263 263 262 259 256 255 252 250 244 239 237 234 231 229 228 226 224 221
291 289 287 286 278 272 271 271 270 271 269 269 271 269 264 268 268 267 266 268 269 270 270 269 268 267 267 265 263 259 258 256 252 247 242 239 236 233 230 229 228 226 224
288 289 286 281 279 276 271 272 271 271 271 273 274 271 266 265 267 267 265 269 270 271 271 271 273 271 270 268 265 263 259 257 254 251 247 241 238 234 232 231 230 228 226
288 291 287 285 282 280 277 270 269 272 275 274 275 277 273 269 272 269 270 271 271 271 270 273 275 273 271 269 267 264 261 258 255 252 251 248 242 237 235 233 231 229 227
285 287 287 285 284 280 280 276 275 274 276 281 278 279 277 276 276 275 275 275 274 271 272 273 274 274 271 269 266 263 262 261 258 256 252 249 246 240 237 235 233 231 229
285 285 286 285 284 284 281 281 282 280 281 286 285 283 281 280 279 277 275 275 274 273 273 274 275 274 271 268 265 264 263 261 259 258 255 249 247 243 238 235 234 232 232
288 287 286 285 285 288 288 291 292 290 293 293 289 288 285 282 280 279 276 275 274 274 273 273 274 273 270 268 265 263 262 260 258 259 257 252 247 245 241 237 234 233 233
288 289 290 291 294 297 298 297 297 297 297 297 294 292 290 286 284 282 279 277 275 274 274 273 273 272 270 267 265 263 262 260 257 257 256 253 250 245 243 238 235 234 232
286 290 291 299 298 298 299 301 302 302 302 301 296 292 290 287 286 284 282 280 277 275 274 273 272 271 269 266 265 262 261 260 258 257 254 252 249 244 241 238 234 234 233
288 290 297 303 304 303 304 305 305 304 304 302 299 296 293 292 290 287 283 282 280 277 274 273 272 271 269 267 265 262 260 258 257 255 252 250 248 244 241 239 236 235 234
293 298 301 304 305 305 306 307 307 307 306 304 302 300 297 295 292 290 286 283 280 278 276 274 272 271 269 266 264 262 259 256 255 253 251 249 247 245 242 241 239 236 234
302 304 305 308 309 309 310 310 309 309 307 306 305 303 301 298 295 291 288 285 282 279 277 275 273 271 269 267 264 262 259 256 254 252 251 249 247 245 242 242 240 237 235
313 313 311 310 310 310 310 310 309 308 308 307 306 305 303 301 298 295 291 288 284 281 279 277 275 272 269 267 265 262 259 256 254 252 251 249 247 246 243 242 240 239 236
316 313 311 310 309 309 310 310 309 308 308 307 306 305 303 301 299 297 294 291 287 284 281 278 276 274 271 267 265 262 259 256 253 251 250 248 247 245 243 241 240 239 238
Height
5917 5917 5916 5916 5915 5915 5914 5913 5913 5912 5911 5910 5910 5909 5908 5908 5907 5907 5906 5906 5905 5905 5904 5904 5903 5903 5903 5902 5902 5902 5901 5901 5901 5901 5901 5901 5901 5901 5901 5901 5901 5901 5901
5917 5916 5916 5915 5915 5914 5914 5913 5912 5911 5911 5910 5909 5908 5908 5907 5907 5907 5906 5906 5905 5905 5904 5904 5904 5903 5903 5903 5903 5902 5902 5902 5902 5902 5902 5902 5902 5902 5902 5902 5902 5902 5903
5915 5915 5914 5914 5914 5914 5913 5912 5911 5910 5910 5909 5908 5908 5907 5907 5906 5906 5906 5905 5905 5905 5904 5904 5904 5903 5903 5903 5903 5903 5902 5902 5902 5902 5902 5902 5902 5902 5903 5903 5903 5903 5904
5914 5913 5913 5913 5912 5912 5912 5911 5910 5909 5909 5908 5907 5907 5906 5906 5905 5905 5905 5905 5904 5904 5904 5904 5903 5903 5903 5903 5903 5903 5902 5902 5902 5902 5902 5902 5902 5903 5903 5903 5904 5904 5905
5912 5911 5911 5911 5910 5910 5909 5909 5908 5908 5907 5906 5906 5905 5905 5905 5904 5904 5903 5903 5903 5903 5903 5903 5903 5903 5903 5902 5902 5902 5902 5902 5902 5902 5902 5902 5903 5903 5903 5904 5904 5905 5906
5910 5910 5909 5909 5908 5907 5907 5907 5906 5906 5905 5905 5904 5904 5903 5903 5903 5902 5902 5902 5902 5902 5902 5901 5901 5901 5901 5901 5901 5901 5901 5902 5902 5902 5902 5902 5902 5903 5903 5904 5904 5905 5906
5909 5908 5907 5906 5906 5905 5904 5904 5904 5903 5903 5903 5902 5902 5901 5901 5901 5901 5900 5900 5900 5900 5900 5900 5899 5899 5899 5900 5900 5900 5900 5900 5901 5901 5901 5902 5902 5902 5903 5904 5904 5905 5906
5906 5905 5904 5904 5903 5902 5901 5901 5901 5901 5900 5900 5900 5899 5899 5899 5899 5898 5898 5898 5898 5898 5898 5898 5898 5898 5898 5898 5898 5898 5898 5899 5899 5900 5900 5901 5901 5902 5903 5903 5904 5905 5906
5903 5902 5901 5900 5899 5899 5898 5898 5898 5898 5898 5897 5897 5897 5897 5896 5896 5896 5896 5896 5896 5896 5896 5896 5895 5895 5895 5895 5895 5896 5896 5896 5897 5898 5898 5899 5900 5901 5902 5903 5903 5904 5905
5900 5899 5898 5897 5896 5895 5895 5894 5894 5894 5894 5894 5894 5894 5893 5893 5893 5893 5893 5893 5892 5893 5893 5892 5892 5892 5892 5892 5893 5893 5893 5893 5894 5895 5896 5897 5898 5899 5900 5901 5902 5903 5905
5897 5896 5895 5894 5892 5891 5891 5890 5890 5890 5890 5890 5890 5890 5889 5889 5889 5889 5889 5889 5889 5889 5888 5888 5889 5889 5889 5889 5889 5889 5890 5890 5891 5892 5893 5894 5896 5897 5898 5899 5901 5902 5903
5894 5892 5891 5890 5889 5888 5887 5886 5885 5885 5885 5885 5885 5884 5884 5885 5884 5884 5884 5884 5884 5884 5884 5884 5884 5884 5884 5884 5884 5884 5885 5886 5887 5888 5889 5891 5892 5894 5895 5897 5898 5900 5901
5890 5888 5887 5886 5885 5884 5883 5882 5881 5880 5880 5880 5879 5879 5879 5879 5880 5879 5879 5879 5878 5878 5878 5878 5879 5879 5879 5880 5880 5880 5880 5881 5882 5883 5885 5887 5888 5890 5892 5893 5895 5897 5898
5886 5884 5883 5882 5880 5879 5878 5877 5876 5876 5875 5874 5873 5873 5873 5874 5874 5874 5874 5873 5873 5873 5873 5873 5873 5874 5874 5874 5875 5875 5876 5876 5877 5878 5880 5882 5883 5885 5887 5889 5891 5893 5895
5881 5880 5878 5877 5876 5875 5874 5873 5871 5871 5870 5869 5868 5868 5867 5868 5868 5868 5868 5867 5867 5867 5867 5867 5868 5868 5868 5868 5869 5869 5870 5871 5872 5873 5874 5876 5878 5880 5882 5884 5886 5889 5891
5877 5876 5874 5873 5871 5870 5869 5867 5866 5866 5865 5864 5864 5863 5862 5862 5862 5863 5863 5862 5862 5862 5862 5862 5862 5862 5862 5862 5863 5863 5864 5865 5867 5868 5868 5870 5872 5874 5876 5879 5881 5883 5886
5873 5871 5870 5868 5867 5865 5864 5863 5862 5861 5861 5860 5860 5859 5858 5857 5857 5857 5857 5856 5856 5856 5856 5856 5856 5856 5856 5856 5856 5857 5858 5859 5860 5861 5862 5863 5865 5868 5870 5872 5875 5878 5880
5868 5867 5865 5864 5862 5861 5860 5859 5858 5858 5857 5856 5855 5854 5853 5852 5852 5851 5851 5851 5850 5850 5850 5850 5849 5849 5849 5849 5850 5851 5852 5852 5853 5854 5855 5857 5858 5861 5863 5866 5869 5871 5874
5864 5862 5861 5860 5859 5858 5857 5856 5855 5854 5853 5851 5850 5848 5848 5847 5846 5845 5845 5844 5844 5843 5843 5843 5842 5842 5842 5843 5843 5844 5845 5846 5847 5848 5848 5850 5852 5854 5856 5859 5862 5865 5868
5860 5859 5858 5857 5856 5855 5854 5853 5852 5851 5849 5846 5845 5843 5842 5841 5840 5839 5838 5837 5836 5836 5835 5835 5835 5835 5835 5835 5836 5836 5837 5838 5839 5841 5841 5843 5844 5847 5849 5851 5854 5857 5861
5857 5856 5855 5854 5853 5852 5851 5849 5848 5846 5844 5842 5840 5839 5837 5835 5834 5832 5830 5829 5829 5828 5827 5827 5827 5826 5826 5827 5828 5828 5829 5830 5831 5833 5834 5836 5838 5839 5841 5844 5847 5850 5854
5854 5853 5852 5851 5850 5849 5847 5845 5843 5841 5839 5837 5835 5833 5831 5828 5826 5824 5823 5822 5821 5820 5819 5819 5818 5818 5818 5818 5819 5820 5821 5823 5823 5825 5826 5828 5830 5832 5834 5837 5839 5843 5846
5851 5850 5849 5848 5847 5845 5843 5841 5839 5836 5834 5831 5828 5826 5823 5821 5819 5817 5815 5814 5813 5811 5811 5810 5809 5809 5809 5809 5810 5811 5812 5813 5815 5817 5818 5819 5821 5824 5826 5829 5832 5835 5838
5848 5847 5846 5845 5843 5841 5838 5836 5833 5831 5828 5825 5822 5819 5816 5814 5811 5809 5807 5806 5804 5803 5802 5801 5800 5800 5800 5800 5800 5801 5802 5803 5805 5807 5809 5811 5813 5815 5818 5821 5824 5827 5829
5845 5844 5843 5841 5839 5837 5834 5831 5828 5825 5822 5819 5816 5812 5809 5806 5803 5801 5799 5797 5795 5794 5793 5792 5791 5790 5790 5790 5790 5791 5792 5793 5795 5797 5799 5801 5804 5806 5809 5812 5815 5818 5821
5843 5841 5840 5838 5835 5833 5830 5827 5823 5820 5816 5813 5809 5806 5802 5799 5796 5793 5790 5788 5786 5785 5783 5782 5781 5780 5780 5779 5780 5780 5781 5783 5785 5786 5789 5791 5793 5796 5799 5803 5806 5809 5812